Temperature
-7 -7 -6 -6 -5 -4 -3 -3 -2 -1 0 3 5 7 8 9 9 10 10 11 11 12 12 12 12 12 13 13 13 14 14 14 13 13 13 13 13 13
-7 -7 -7 -6 -5 -4 -3 -2 -2 -2 -1 1 4 6 7 8 8 9 10 10 11 11 12 12 12 12 13 13 13 13 13 13 13 13 12 12 12 12
-7 -7 -7 -6 -5 -4 -3 -2 -2 -1 -1 0 2 5 6 7 8 8 9 9 10 11 11 12 12 12 13 13 13 13 13 13 13 12 12 11 11 11
-8 -7 -7 -6 -5 -4 -3 -2 -1 -1 -0 0 2 3 5 6 7 8 8 9 9 10 11 11 12 12 12 12 12 12 12 12 12 12 11 11 11 10
-8 -7 -7 -6 -5 -4 -3 -2 -1 -0 0 1 2 3 4 5 6 7 8 8 9 9 10 10 11 12 12 12 12 12 12 12 11 11 11 10 10 9
-8 -7 -7 -7 -6 -4 -3 -2 -1 -1 -0 0 1 2 3 4 5 6 7 7 8 8 8 9 10 10 11 11 11 11 11 11 10 10 10 9 8 8
-8 -8 -8 -7 -7 -5 -4 -3 -2 -1 -1 -0 1 2 3 3 4 5 6 7 7 7 8 8 9 9 9 10 10 10 10 10 9 9 7 7 6 7
-8 -9 -8 -8 -8 -7 -6 -5 -4 -3 -2 -1 0 1 2 2 3 4 5 6 7 7 7 8 8 8 8 8 9 9 9 8 7 6 5 5 5 5
-9 -9 -9 -9 -8 -8 -7 -6 -5 -5 -4 -3 -1 -1 0 1 2 3 4 5 6 7 7 7 7 7 7 6 6 6 6 5 5 5 5 4 4 4
-9 -9 -9 -9 -9 -9 -8 -7 -7 -6 -6 -4 -3 -3 -2 -0 1 3 4 5 6 6 6 6 5 5 5 4 4 5 5 4 4 4 4 4 4 4
-10 -9 -10 -10 -9 -10 -9 -9 -7 -7 -6 -6 -5 -4 -3 -1 0 2 3 4 5 5 5 5 4 4 4 3 3 3 3 3 3 3 3 3 3 3
-10 -10 -10 -10 -10 -10 -10 -10 -9 -8 -7 -5 -4 -3 -2 -1 -0 1 2 3 3 3 4 4 3 3 2 2 2 2 2 2 2 3 3 3 3 3
-12 -11 -11 -11 -11 -11 -11 -11 -11 -9 -8 -7 -6 -5 -4 -3 -2 -1 0 1 2 2 2 3 2 2 2 1 1 1 2 2 2 2 2 2 3 3
-12 -12 -12 -12 -11 -11 -11 -11 -11 -10 -9 -9 -8 -8 -7 -7 -6 -4 -2 -1 0 1 1 2 2 2 2 1 0 1 1 1 1 2 2 2 2 2
-13 -13 -13 -12 -12 -11 -12 -11 -11 -11 -11 -11 -11 -10 -10 -8 -7 -6 -4 -2 -1 -0 0 1 2 2 2 1 0 0 1 1 1 1 1 1 1 1
-13 -13 -13 -13 -13 -13 -12 -12 -12 -12 -12 -12 -12 -11 -10 -9 -8 -7 -6 -4 -2 -2 -1 -0 0 1 1 1 1 0 0 0 0 0 0 0 0 0
-14 -14 -14 -13 -14 -14 -14 -14 -13 -13 -12 -12 -11 -11 -11 -11 -10 -9 -8 -6 -5 -5 -4 -2 -1 -0 -0 -1 -1 -1 -1 -1 -1 -1 -0 -0 -0 -0
-14 -14 -15 -15 -15 -15 -15 -15 -15 -14 -14 -13 -13 -12 -11 -11 -11 -10 -10 -9 -8 -8 -7 -6 -5 -3 -2 -3 -3 -3 -2 -2 -2 -1 -1 -1 -1 -1
-14 -15 -15 -15 -15 -15 -15 -15 -15 -15 -15 -14 -14 -13 -12 -12 -11 -10 -10 -10 -10 -10 -9 -8 -7 -6 -4 -6 -7 -7 -5 -4 -4 -3 -3 -3 -2 -2
-14 -15 -15 -15 -15 -15 -15 -15 -15 -15 -15 -15 -14 -14 -13 -13 -12 -12 -11 -11 -10 -10 -10 -9 -8 -7 -6 -7 -8 -8 -8 -6 -5 -4 -4 -3 -3 -3
-14 -14 -15 -15 -15 -15 -15 -15 -15 -15 -15 -15 -15 -15 -14 -14 -13 -13 -13 -12 -11 -10 -10 -10 -10 -9 -9 -8 -8 -9 -8 -7 -7 -6 -5 -5 -5 -4
-14 -14 -14 -15 -15 -15 -15 -15 -15 -15 -15 -15 -15 -15 -14 -14 -14 -14 -14 -13 -13 -12 -12 -11 -11 -11 -10 -9 -9 -9 -9 -8 -8 -7 -7 -6 -6 -5
-14 -14 -14 -14 -15 -15 -15 -15 -15 -15 -15 -15 -15 -14 -14 -14 -14 -14 -14 -14 -14 -13 -13 -12 -12 -11 -11 -11 -11 -10 -10 -10 -9 -9 -8 -8 -7 -7
Wind_Speed
14 13 11 12 12 13 14 14 14 13 13 10 7 6 4 3 9 10 9 14 17 17 17 17 17 17 18 21 24 28 31 31 31 31 30 29 27 25
13 13 13 12 12 13 14 14 15 15 14 8 7 6 7 6 5 7 9 13 17 19 20 19 19 19 20 21 22 25 29 30 32 33 32 31 29 28
13 13 15 15 13 12 12 13 14 14 16 14 11 10 9 7 4 2 4 6 9 17 19 20 20 21 21 20 21 23 27 30 33 34 34 33 32 30
13 14 15 13 15 12 10 11 11 12 12 13 10 8 9 6 5 3 3 5 5 12 17 18 19 20 20 20 22 25 29 32 33 34 35 35 33 31
12 14 15 15 14 12 11 9 8 8 7 8 8 6 5 4 3 3 4 4 4 8 11 13 15 17 19 21 25 28 32 33 34 35 35 34 33 31
10 13 14 14 15 14 10 7 5 4 4 5 6 5 4 4 3 3 4 4 5 5 6 8 13 17 22 27 30 32 34 36 36 35 33 32 30 29
10 12 14 18 21 18 13 12 9 4 3 3 4 3 3 3 3 4 5 4 4 5 8 8 10 10 13 25 31 36 37 37 36 34 32 30 28 27
10 11 14 16 20 24 25 25 23 15 9 5 3 2 2 2 2 3 5 6 6 7 8 8 9 12 11 14 29 35 36 36 35 34 33 31 28 26
10 11 13 16 19 16 21 25 24 27 23 12 9 8 5 5 4 3 5 7 4 8 11 9 9 12 11 21 31 33 34 33 33 33 32 30 28 25
12 12 13 15 19 19 17 17 17 18 20 15 13 13 13 10 6 4 3 4 5 5 8 9 9 11 12 16 28 31 32 32 31 32 31 29 27 24
14 16 16 14 25 26 18 17 17 17 20 25 25 23 26 28 20 6 2 7 10 5 4 6 9 10 10 11 21 30 31 31 31 31 30 28 27 23
11 14 22 23 26 26 17 16 17 16 17 18 20 23 21 23 28 17 9 1 8 5 2 6 9 8 8 6 9 18 24 27 28 27 26 25 23 18
10 10 13 25 27 27 22 16 20 17 14 15 15 16 16 16 17 17 15 8 4 4 2 5 7 5 7 6 6 8 13 16 18 19 18 17 16 16
9 8 12 23 25 26 21 23 26 20 12 13 14 15 15 15 14 14 15 15 14 10 8 5 6 6 9 7 6 6 8 11 13 11 13 16 16 15
9 17 19 22 21 18 24 26 20 14 13 14 14 13 13 13 13 13 14 13 18 20 19 14 9 9 8 9 8 7 6 6 8 7 8 8 7 7
10 15 20 21 18 19 19 16 14 13 13 12 12 11 11 12 14 13 13 12 13 16 21 23 15 12 12 12 11 10 8 7 6 6 6 6 8 8
9 8 9 11 12 12 11 12 12 12 12 12 12 11 12 12 13 13 13 12 13 14 14 13 18 22 18 13 11 11 11 10 7 6 5 4 3 6
12 7 9 10 11 11 11 10 10 11 11 11 11 11 11 11 11 11 12 12 12 12 11 9 7 8 11 14 16 11 10 8 6 6 4 4 3 4
7 5 5 6 6 7 7 7 7 8 7 7 8 8 9 9 10 10 10 10 11 11 11 11 10 7 9 8 8 13 8 6 5 4 4 4 2 1
4 4 4 5 4 5 5 5 5 5 5 5 5 6 7 7 8 9 9 10 10 10 10 11 11 9 7 6 5 5 11 7 4 4 3 3 2 4
4 4 4 4 4 4 4 4 5 4 4 4 5 5 5 6 6 7 8 12 10 8 9 7 7 9 4 4 6 4 4 8 5 3 2 2 2 2
4 4 4 4 4 3 4 3 4 4 4 4 4 4 4 4 5 6 6 5 6 5 5 4 4 6 5 6 6 4 3 3 4 1 2 3 1 1
4 4 4 5 4 3 3 4 4 3 3 3 3 3 3 3 3 3 4 4 4 4 4 4 3 4 4 4 3 2 1 1 1 2 2 3 5 8
Wind_Direction
303 299 298 293 282 269 257 247 250 261 272 276 277 278 286 225 189 184 191 207 218 226 226 223 222 222 219 213 205 197 192 187 182 177 174 170 163 152
306 306 305 299 290 274 255 243 238 244 256 271 275 300 330 326 214 180 192 207 214 220 225 225 222 220 218 215 207 198 190 182 177 174 172 163 150 142
312 313 310 306 299 286 262 243 236 234 245 257 267 280 292 306 291 222 205 205 210 213 218 222 222 220 217 213 205 194 183 175 169 167 161 151 145 141
320 320 319 318 311 302 283 254 239 233 237 248 256 261 262 266 264 244 224 206 198 205 210 216 218 218 212 202 191 177 168 162 157 153 149 145 141 140
321 326 328 328 325 315 300 280 257 246 240 249 254 252 253 249 252 249 229 205 190 187 192 198 202 198 186 173 163 155 149 144 141 140 139 138 138 138
329 335 335 341 339 334 331 324 299 274 262 259 258 253 246 246 221 215 217 195 179 163 151 148 152 154 154 150 144 137 133 131 131 131 131 131 132 132
348 351 350 1 4 5 11 11 7 354 324 288 266 251 237 227 221 196 204 183 166 155 141 135 127 126 131 131 129 127 126 125 126 126 124 123 122 122
10 7 2 8 15 12 20 25 27 27 19 7 337 307 302 305 282 223 198 184 178 165 145 127 123 121 119 121 125 124 126 127 128 128 127 124 121 119
21 22 18 14 24 16 17 23 23 26 31 29 22 15 3 348 323 272 223 188 162 156 140 125 122 120 121 129 129 128 128 128 128 127 125 123 122 122
26 27 26 19 28 26 19 22 22 21 25 29 30 23 17 10 341 296 268 157 117 116 131 123 120 116 118 124 128 129 130 131 130 129 128 127 126 123
22 23 27 25 30 30 23 22 22 18 19 27 31 32 30 28 24 15 359 176 146 110 71 111 120 105 93 103 117 120 122 124 127 128 129 129 127 123
19 15 22 29 30 34 28 23 26 17 14 17 22 24 26 27 28 25 6 218 141 121 57 115 126 115 94 55 81 107 113 116 119 123 126 127 126 121
20 13 17 27 29 34 35 31 31 26 19 21 23 22 23 24 25 24 22 23 67 83 45 106 118 101 112 109 63 71 101 109 108 110 111 116 127 132
11 6 19 28 28 30 34 32 31 29 25 26 29 26 22 18 16 20 26 35 41 48 39 69 108 121 127 119 110 89 89 100 106 103 99 99 99 103
11 19 24 28 28 27 29 31 29 27 26 29 29 27 22 18 17 20 23 33 42 42 40 52 86 103 106 123 124 128 106 93 100 106 105 101 102 105
18 19 24 26 29 27 28 27 25 28 29 26 24 23 23 26 27 25 28 29 45 45 40 45 57 86 103 106 116 121 118 123 115 102 101 100 103 105
28 19 19 20 22 21 23 25 24 24 27 24 22 23 27 32 34 33 35 39 46 49 47 48 59 70 73 84 103 104 106 104 100 95 104 109 106 122
31 23 25 22 20 18 19 20 23 25 24 26 25 24 26 30 35 37 43 45 47 43 38 30 46 73 76 59 51 93 96 98 92 80 77 96 88 71
25 12 14 14 13 11 10 10 15 19 17 22 25 21 24 30 39 42 43 49 51 49 41 34 31 59 92 94 51 48 76 82 83 79 73 79 86 21
5 5 4 3 5 6 4 1 360 10 11 15 20 19 24 32 40 44 46 51 55 55 50 44 42 47 66 87 98 64 55 63 65 68 57 46 360 313
348 351 351 355 356 357 356 357 354 357 7 14 25 23 23 32 38 38 45 59 60 58 60 50 33 40 42 68 88 79 49 63 72 82 61 34 3 347
332 334 333 337 343 349 346 348 347 349 4 17 18 25 26 31 38 44 45 52 55 54 58 55 32 39 50 74 83 79 59 25 11 341 229 222 175 55
307 307 310 316 321 331 342 343 341 337 348 355 359 15 30 32 31 39 42 53 60 54 46 45 45 56 66 77 86 82 58 28 35 26 327 286 264 269
Height
1434 1431 1427 1423 1420 1419 1419 1420 1421 1418 1412 1408 1413 1416 1420 1423 1426 1430 1434 1438 1442 1446 1450 1454 1459 1464 1470 1475 1481 1487 1492 1498 1504 1511 1516 1522 1527 1531
1429 1425 1420 1416 1412 1410 1410 1410 1411 1412 1409 1405 1408 1411 1414 1416 1420 1424 1428 1432 1435 1439 1443 1447 1452 1457 1462 1468 1474 1480 1486 1492 1498 1504 1510 1515 1520 1524
1424 1419 1414 1409 1405 1402 1401 1400 1401 1403 1402 1400 1402 1404 1408 1411 1414 1419 1423 1426 1429 1433 1436 1441 1445 1450 1455 1461 1467 1473 1479 1485 1492 1498 1503 1508 1513 1519
1420 1415 1410 1404 1399 1395 1393 1392 1392 1393 1395 1396 1396 1399 1402 1406 1409 1413 1417 1420 1423 1427 1430 1434 1438 1443 1448 1454 1460 1466 1473 1479 1486 1492 1497 1502 1508 1514
1417 1412 1407 1401 1395 1390 1387 1385 1384 1386 1387 1389 1390 1393 1396 1400 1403 1407 1411 1415 1418 1421 1424 1427 1432 1437 1442 1447 1453 1460 1466 1473 1479 1485 1491 1497 1503 1509
1416 1411 1405 1400 1393 1387 1383 1380 1379 1380 1381 1383 1385 1387 1390 1394 1398 1402 1406 1409 1413 1416 1419 1423 1426 1431 1436 1441 1446 1453 1460 1467 1474 1480 1486 1492 1499 1505
1414 1410 1405 1400 1393 1387 1382 1378 1376 1376 1376 1378 1380 1382 1385 1389 1392 1396 1401 1405 1409 1412 1415 1419 1423 1427 1432 1437 1443 1449 1456 1462 1469 1475 1482 1489 1496 1503
1414 1410 1405 1399 1393 1387 1382 1377 1375 1373 1373 1374 1375 1378 1381 1384 1388 1392 1396 1400 1404 1408 1411 1415 1420 1425 1430 1435 1440 1446 1452 1459 1466 1473 1481 1488 1495 1502
1415 1411 1406 1401 1395 1388 1383 1378 1375 1374 1373 1373 1373 1375 1377 1380 1382 1386 1390 1394 1398 1402 1407 1412 1417 1422 1429 1435 1440 1446 1452 1459 1466 1473 1481 1488 1495 1501
1417 1414 1409 1404 1399 1393 1387 1382 1378 1375 1374 1372 1372 1373 1374 1375 1378 1381 1385 1389 1393 1397 1402 1408 1415 1421 1429 1436 1443 1448 1454 1461 1468 1474 1481 1488 1494 1499
1420 1417 1413 1408 1404 1397 1391 1386 1382 1379 1376 1374 1372 1371 1371 1372 1374 1378 1382 1384 1386 1391 1396 1402 1411 1418 1428 1438 1446 1451 1457 1463 1469 1475 1482 1487 1493 1499
1424 1420 1418 1414 1409 1403 1397 1392 1387 1383 1380 1376 1373 1371 1370 1371 1372 1375 1378 1380 1380 1386 1391 1398 1406 1414 1427 1437 1445 1452 1458 1465 1471 1477 1483 1489 1494 1499
1428 1425 1422 1419 1414 1409 1404 1399 1396 1391 1386 1382 1378 1375 1373 1372 1373 1374 1377 1378 1379 1383 1389 1394 1403 1411 1420 1434 1443 1451 1457 1463 1470 1476 1482 1488 1493 1497
1433 1430 1427 1423 1418 1414 1410 1407 1402 1397 1392 1388 1385 1382 1379 1378 1377 1377 1377 1378 1379 1383 1389 1395 1401 1409 1417 1428 1438 1448 1456 1464 1470 1475 1481 1486 1490 1494
1437 1435 1431 1427 1422 1418 1415 1411 1407 1403 1400 1396 1393 1392 1390 1388 1385 1383 1381 1382 1382 1385 1391 1398 1405 1412 1420 1426 1434 1444 1452 1461 1468 1473 1479 1484 1488 1492
1439 1436 1433 1430 1426 1423 1419 1416 1413 1411 1408 1405 1403 1401 1399 1395 1392 1390 1388 1387 1387 1390 1395 1402 1409 1416 1424 1430 1436 1444 1452 1458 1465 1471 1476 1481 1485 1488
1443 1440 1436 1433 1430 1427 1424 1422 1419 1416 1414 1412 1410 1408 1405 1402 1400 1398 1397 1396 1395 1396 1401 1407 1412 1417 1424 1430 1437 1444 1450 1456 1462 1468 1474 1478 1481 1485
1447 1444 1441 1438 1436 1433 1430 1428 1425 1422 1420 1418 1416 1414 1412 1410 1409 1408 1407 1406 1406 1406 1408 1412 1416 1419 1424 1432 1439 1443 1449 1455 1460 1465 1470 1474 1478 1480
1451 1448 1446 1443 1441 1438 1435 1433 1430 1428 1426 1423 1422 1420 1418 1417 1416 1416 1415 1415 1415 1416 1418 1419 1422 1425 1426 1432 1442 1447 1450 1454 1459 1463 1467 1470 1473 1476
1454 1451 1449 1446 1443 1441 1438 1436 1433 1432 1430 1427 1426 1424 1423 1422 1421 1421 1421 1422 1423 1424 1426 1428 1429 1431 1432 1435 1441 1447 1451 1455 1458 1461 1464 1467 1470 1472
1455 1453 1450 1448 1445 1442 1440 1438 1435 1434 1432 1430 1429 1428 1427 1426 1425 1425 1425 1427 1427 1429 1430 1432 1433 1435 1437 1440 1443 1447 1451 1454 1456 1458 1461 1464 1467 1468
1455 1453 1451 1448 1446 1443 1441 1439 1437 1435 1434 1433 1431 1431 1430 1429 1429 1429 1429 1430 1431 1432 1433 1435 1436 1438 1439 1441 1444 1447 1450 1452 1454 1456 1459 1461 1462 1464
1453 1451 1450 1448 1446 1444 1442 1440 1438 1437 1436 1434 1433 1433 1432 1432 1432 1432 1432 1432 1433 1434 1435 1436 1438 1439 1440 1442 1444 1447 1449 1451 1452 1455 1457 1458 1459 1460